Time,TemperatureF,DewpointF,PressureIn,WindDirection,WindDirectionDegrees,WindSpeedMPH,WindSpeedGustMPH,Humidity,HourlyPrecipIn,Conditions,Clouds,dailyrainin,SolarRadiationWatts/m^2,SoftwareType,DateUTC
2013-03-05 00:11:00,55.0,52.0,-100.00,NNW,344,4.0,10.0,89,0.00,,,-99.99,0.000000,,2013-03-05 10:11:00,
2013-03-05 00:21:00,55.0,52.0,-100.00,NNW,344,4.0,10.0,89,0.00,,,-99.99,0.000000,,2013-03-05 10:21:00,
2013-03-05 00:32:00,55.0,52.0,-100.00,NNW,344,4.0,10.0,89,0.00,,,-99.99,0.000000,,2013-03-05 10:32:00,
2013-03-05 00:41:00,55.0,52.0,-100.00,NNW,344,4.0,10.0,89,0.00,,,-99.99,0.000000,,2013-03-05 10:41:00,
2013-03-05 01:11:00,57.0,53.0,-100.00,NW,310,6.0,10.0,87,0.00,,,0.00,0.000000,,2013-03-05 11:11:00,
2013-03-05 01:22:00,57.0,53.0,-100.00,NW,310,6.0,10.0,87,0.00,,,0.00,0.000000,,2013-03-05 11:22:00,
2013-03-05 01:32:00,57.0,53.0,-100.00,NW,310,6.0,10.0,87,0.00,,,0.00,0.000000,,2013-03-05 11:32:00,
2013-03-05 01:41:00,57.0,53.0,-100.00,NW,310,6.0,10.0,87,0.00,,,0.00,0.000000,,2013-03-05 11:41:00,
2013-03-05 02:11:00,57.0,52.0,-100.00,NW,311,4.0,9.0,84,0.00,,,0.00,0.000000,,2013-03-05 12:11:00,
2013-03-05 02:22:00,57.0,52.0,-100.00,NW,311,4.0,9.0,84,0.00,,,0.00,0.000000,,2013-03-05 12:22:00,
2013-03-05 02:32:00,57.0,52.0,-100.00,NW,311,4.0,9.0,84,0.00,,,0.00,0.000000,,2013-03-05 12:32:00,
2013-03-05 02:42:00,57.0,52.0,-100.00,NW,311,4.0,9.0,84,0.00,,,0.00,0.000000,,2013-03-05 12:42:00,
2013-03-05 03:11:00,52.0,47.0,-100.00,North,2,5.0,8.0,84,0.00,,,0.00,0.000000,,2013-03-05 13:11:00,
2013-03-05 03:21:00,52.0,47.0,-100.00,North,2,5.0,8.0,84,0.00,,,0.00,0.000000,,2013-03-05 13:21:00,
2013-03-05 03:31:00,52.0,47.0,-100.00,North,2,5.0,8.0,84,0.00,,,0.00,0.000000,,2013-03-05 13:31:00,
2013-03-05 03:42:00,52.0,47.0,-100.00,North,2,5.0,8.0,84,0.00,,,0.00,0.000000,,2013-03-05 13:42:00,
2013-03-05 04:11:00,50.0,47.0,-100.00,NNW,333,7.0,9.0,90,0.00,,,0.00,0.000000,,2013-03-05 14:11:00,
2013-03-05 04:21:00,50.0,47.0,-100.00,NNW,333,7.0,9.0,90,0.00,,,0.00,0.000000,,2013-03-05 14:21:00,
2013-03-05 04:31:00,50.0,47.0,-100.00,NNW,333,7.0,9.0,90,0.00,,,0.00,0.000000,,2013-03-05 14:31:00,
2013-03-05 04:41:00,50.0,47.0,-100.00,NNW,333,7.0,9.0,90,0.00,,,0.00,0.000000,,2013-03-05 14:41:00,
2013-03-05 05:11:00,52.0,47.0,-100.00,NNE,27,6.0,9.0,84,0.00,,,0.00,0.000000,,2013-03-05 15:11:00,
2013-03-05 05:21:00,52.0,47.0,-100.00,NNE,27,6.0,9.0,84,0.00,,,0.00,0.000000,,2013-03-05 15:21:00,
2013-03-05 05:32:00,52.0,47.0,-100.00,NNE,27,6.0,9.0,84,0.00,,,0.00,0.000000,,2013-03-05 15:32:00,
2013-03-05 05:42:00,52.0,47.0,-100.00,NNE,27,6.0,9.0,84,0.00,,,0.00,0.000000,,2013-03-05 15:42:00,
2013-03-05 06:11:00,51.0,47.0,-100.00,NNE,20,8.0,12.0,86,0.00,,,-99.99,0.000000,,2013-03-05 16:11:00,
2013-03-05 06:21:00,51.0,47.0,-100.00,NNE,20,8.0,12.0,86,0.00,,,-99.99,0.000000,,2013-03-05 16:21:00,
2013-03-05 06:32:00,51.0,47.0,-100.00,NNE,20,8.0,12.0,86,0.00,,,-99.99,0.000000,,2013-03-05 16:32:00,
2013-03-05 06:41:00,51.0,47.0,-100.00,NNE,20,8.0,12.0,86,0.00,,,-99.99,0.000000,,2013-03-05 16:41:00,
2013-03-05 07:11:00,55.0,49.0,-100.00,North,8,6.0,12.0,79,0.00,,,0.00,2.000000,,2013-03-05 17:11:00,
2013-03-05 07:21:00,55.0,49.0,-100.00,North,8,6.0,12.0,79,0.00,,,0.00,2.000000,,2013-03-05 17:21:00,
2013-03-05 07:32:00,55.0,49.0,-100.00,North,8,6.0,12.0,79,0.00,,,0.00,2.000000,,2013-03-05 17:32:00,
2013-03-05 07:41:00,55.0,49.0,-100.00,North,8,6.0,12.0,79,0.00,,,0.00,2.000000,,2013-03-05 17:41:00,
2013-03-05 08:11:00,59.0,48.0,-100.00,NNE,14,6.0,11.0,67,0.00,,,0.00,112.000000,,2013-03-05 18:11:00,
2013-03-05 08:21:00,59.0,48.0,-100.00,NNE,14,6.0,11.0,67,0.00,,,0.00,112.000000,,2013-03-05 18:21:00,
2013-03-05 08:32:00,59.0,48.0,-100.00,NNE,14,6.0,11.0,67,0.00,,,0.00,112.000000,,2013-03-05 18:32:00,
2013-03-05 08:41:00,59.0,48.0,-100.00,NNE,14,6.0,11.0,67,0.00,,,0.00,112.000000,,2013-03-05 18:41:00,
2013-03-05 09:11:00,70.0,48.0,-100.00,NNE,32,8.0,13.0,46,0.00,,,0.00,353.000000,,2013-03-05 19:11:00,
2013-03-05 09:21:00,70.0,48.0,-100.00,NNE,32,8.0,13.0,46,0.00,,,0.00,353.000000,,2013-03-05 19:21:00,
2013-03-05 09:31:00,70.0,48.0,-100.00,NNE,32,8.0,13.0,46,0.00,,,0.00,353.000000,,2013-03-05 19:31:00,
2013-03-05 09:41:00,70.0,48.0,-100.00,NNE,32,8.0,13.0,46,0.00,,,0.00,353.000000,,2013-03-05 19:41:00,
2013-03-05 10:11:00,74.0,49.0,-100.00,ENE,78,5.0,10.0,41,0.00,,,0.00,579.000000,,2013-03-05 20:11:00,
2013-03-05 10:21:00,74.0,49.0,-100.00,ENE,78,5.0,10.0,41,0.00,,,0.00,579.000000,,2013-03-05 20:21:00,
2013-03-05 10:32:00,74.0,49.0,-100.00,ENE,78,5.0,10.0,41,0.00,,,0.00,579.000000,,2013-03-05 20:32:00,
2013-03-05 10:41:00,74.0,49.0,-100.00,ENE,78,5.0,10.0,41,0.00,,,0.00,579.000000,,2013-03-05 20:41:00,
2013-03-05 11:11:00,76.0,51.0,-100.00,SE,136,8.0,16.0,41,0.00,,,0.00,762.000000,,2013-03-05 21:11:00,
2013-03-05 11:21:00,76.0,51.0,-100.00,SE,136,8.0,16.0,41,0.00,,,0.00,762.000000,,2013-03-05 21:21:00,
2013-03-05 11:31:00,76.0,51.0,-100.00,SE,136,8.0,16.0,41,0.00,,,0.00,762.000000,,2013-03-05 21:31:00,
2013-03-05 11:41:00,76.0,51.0,-100.00,SE,136,8.0,16.0,41,0.00,,,0.00,762.000000,,2013-03-05 21:41:00,
2013-03-05 12:11:00,76.0,54.0,-100.00,SE,125,9.0,17.0,46,0.00,,,0.00,889.000000,,2013-03-05 22:11:00,
2013-03-05 12:21:00,76.0,54.0,-100.00,SE,125,9.0,17.0,46,0.00,,,0.00,889.000000,,2013-03-05 22:21:00,
2013-03-05 12:32:00,76.0,54.0,-100.00,SE,125,9.0,17.0,46,0.00,,,0.00,889.000000,,2013-03-05 22:32:00,
2013-03-05 12:41:00,76.0,54.0,-100.00,SE,125,9.0,17.0,46,0.00,,,0.00,889.000000,,2013-03-05 22:41:00,
2013-03-05 13:11:00,75.0,59.0,-100.00,ESE,118,9.0,15.0,58,0.00,,,0.00,953.000000,,2013-03-05 23:11:00,
2013-03-05 13:21:00,75.0,59.0,-100.00,ESE,118,9.0,15.0,58,0.00,,,0.00,953.000000,,2013-03-05 23:21:00,
2013-03-05 13:32:00,75.0,59.0,-100.00,ESE,118,9.0,15.0,58,0.00,,,0.00,953.000000,,2013-03-05 23:32:00,
2013-03-05 13:41:00,75.0,59.0,-100.00,ESE,118,9.0,15.0,58,0.00,,,0.00,953.000000,,2013-03-05 23:41:00,
2013-03-05 14:11:00,75.0,58.0,-100.00,ESE,112,7.0,16.0,55,0.00,,,-99.99,892.000000,,2013-03-06 00:11:00,
2013-03-05 14:21:00,75.0,58.0,-100.00,ESE,112,7.0,16.0,55,0.00,,,-99.99,892.000000,,2013-03-06 00:21:00,
2013-03-05 14:32:00,75.0,58.0,-100.00,ESE,112,7.0,16.0,55,0.00,,,-99.99,892.000000,,2013-03-06 00:32:00,
2013-03-05 14:41:00,75.0,58.0,-100.00,ESE,112,7.0,16.0,55,0.00,,,-99.99,892.000000,,2013-03-06 00:41:00,
2013-03-05 15:11:00,71.0,60.0,-100.00,ESE,107,8.0,17.0,68,0.00,,,0.00,463.000000,,2013-03-06 01:11:00,
2013-03-05 15:21:00,71.0,60.0,-100.00,ESE,107,8.0,17.0,68,0.00,,,0.00,463.000000,,2013-03-06 01:21:00,
2013-03-05 15:31:00,71.0,60.0,-100.00,ESE,107,8.0,17.0,68,0.00,,,0.00,463.000000,,2013-03-06 01:31:00,
2013-03-05 15:41:00,71.0,60.0,-100.00,ESE,107,8.0,17.0,68,0.00,,,0.00,463.000000,,2013-03-06 01:41:00,
2013-03-05 16:11:00,67.0,59.0,-100.00,East,92,4.0,12.0,75,0.00,,,0.00,135.000000,,2013-03-06 02:11:00,
2013-03-05 16:21:00,67.0,59.0,-100.00,East,92,4.0,12.0,75,0.00,,,0.00,135.000000,,2013-03-06 02:21:00,
2013-03-05 16:31:00,67.0,59.0,-100.00,East,92,4.0,12.0,75,0.00,,,0.00,135.000000,,2013-03-06 02:31:00,
2013-03-05 16:41:00,67.0,59.0,-100.00,East,92,4.0,12.0,75,0.00,,,0.00,135.000000,,2013-03-06 02:41:00,
2013-03-05 17:11:00,66.0,61.0,-100.00,ESE,120,5.0,9.0,83,0.00,,,0.00,61.000000,,2013-03-06 03:11:00,
2013-03-05 17:21:00,66.0,61.0,-100.00,ESE,120,5.0,9.0,83,0.00,,,0.00,61.000000,,2013-03-06 03:21:00,
2013-03-05 17:31:00,66.0,61.0,-100.00,ESE,120,5.0,9.0,83,0.00,,,0.00,61.000000,,2013-03-06 03:31:00,
2013-03-05 17:41:00,66.0,61.0,-100.00,ESE,120,5.0,9.0,83,0.00,,,0.00,61.000000,,2013-03-06 03:41:00,
2013-03-05 18:11:00,65.0,60.0,-100.00,SE,138,3.0,11.0,85,0.00,,,0.00,26.000000,,2013-03-06 04:11:00,
2013-03-05 18:21:00,65.0,60.0,-100.00,SE,138,3.0,11.0,85,0.00,,,0.00,26.000000,,2013-03-06 04:21:00,
2013-03-05 18:32:00,65.0,60.0,-100.00,SE,138,3.0,11.0,85,0.00,,,0.00,26.000000,,2013-03-06 04:32:00,
2013-03-05 18:41:00,65.0,60.0,-100.00,SE,138,3.0,11.0,85,0.00,,,0.00,26.000000,,2013-03-06 04:41:00,
2013-03-05 19:11:00,65.0,60.0,-100.00,SE,129,3.0,10.0,85,0.00,,,0.00,6.000000,,2013-03-06 05:11:00,
2013-03-05 19:22:00,65.0,60.0,-100.00,SE,129,3.0,10.0,85,0.00,,,0.00,6.000000,,2013-03-06 05:22:00,
2013-03-05 19:32:00,65.0,60.0,-100.00,SE,129,3.0,10.0,85,0.00,,,0.00,6.000000,,2013-03-06 05:32:00,
2013-03-05 19:42:00,65.0,60.0,-100.00,SE,129,3.0,10.0,85,0.00,,,0.00,6.000000,,2013-03-06 05:42:00,
2013-03-05 20:11:00,64.0,60.0,-100.00,NNE,15,4.0,8.0,87,0.00,,,0.00,0.000000,,2013-03-06 06:11:00,
2013-03-05 20:22:00,64.0,60.0,-100.00,NNE,15,4.0,8.0,87,0.00,,,0.00,0.000000,,2013-03-06 06:22:00,
2013-03-05 20:31:00,64.0,60.0,-100.00,NNE,15,4.0,8.0,87,0.00,,,0.00,0.000000,,2013-03-06 06:31:00,
2013-03-05 20:41:00,64.0,60.0,-100.00,NNE,15,4.0,8.0,87,0.00,,,0.00,0.000000,,2013-03-06 06:41:00,
2013-03-05 21:11:00,64.0,58.0,-100.00,SW,235,2.0,9.0,81,0.00,,,0.00,0.000000,,2013-03-06 07:11:00,
2013-03-05 21:22:00,64.0,58.0,-100.00,SW,235,2.0,9.0,81,0.00,,,0.00,0.000000,,2013-03-06 07:22:00,
2013-03-05 21:31:00,64.0,58.0,-100.00,SW,235,2.0,9.0,81,0.00,,,0.00,0.000000,,2013-03-06 07:31:00,
2013-03-05 21:42:00,64.0,58.0,-100.00,SW,235,2.0,9.0,81,0.00,,,0.00,0.000000,,2013-03-06 07:42:00,
2013-03-05 22:11:00,60.0,57.0,-100.00,West,275,1.0,6.0,90,0.00,,,0.00,0.000000,,2013-03-06 08:11:00,
2013-03-05 22:21:00,60.0,57.0,-100.00,West,275,1.0,6.0,90,0.00,,,0.00,0.000000,,2013-03-06 08:21:00,
2013-03-05 22:31:00,60.0,57.0,-100.00,West,275,1.0,6.0,90,0.00,,,0.00,0.000000,,2013-03-06 08:31:00,
2013-03-05 22:42:00,60.0,57.0,-100.00,West,275,1.0,6.0,90,0.00,,,0.00,0.000000,,2013-03-06 08:42:00,
2013-03-05 23:12:00,57.0,55.0,-100.00,NW,324,4.0,5.0,93,0.00,,,0.00,0.000000,,2013-03-06 09:12:00,
2013-03-05 23:21:00,57.0,55.0,-100.00,NW,324,4.0,5.0,93,0.00,,,0.00,0.000000,,2013-03-06 09:21:00,
2013-03-05 23:31:00,57.0,55.0,-100.00,NW,324,4.0,5.0,93,0.00,,,0.00,0.000000,,2013-03-06 09:31:00,
2013-03-05 23:41:00,57.0,55.0,-100.00,NW,324,4.0,5.0,93,0.00,,,0.00,0.000000,,2013-03-06 09:41:00,